Terminal Aerodrome Forecast
Issued by NWS Chicago, IL

Home | Current Version | Previous Version | Graphics & Text | Print | Product List | Glossary On
Versions: 1 2 3 4 5 6 7 8 9 10 11 12 13 14 15 16 17 18 19 20 21 22 23 24 25 26 27 28 29 30
000
FTUS43 KLOT 291437 AAA
TAFRFD
TAF AMD
KRFD 291437Z 2915/3012 02007KT P6SM OVC010
     FM291600 06008KT P6SM VCTS SCT015 BKN035CB
      TEMPO 2918/2921 3SM TSRA OVC025CB
     FM300100 04006KT P6SM VCSH BKN040=

USA.gov is the U.S. government's official web portal to all federal, state and local government web resources and services.